Tri Cities Regional Tn Va Airport Bristol,Johnson,Kingsport US
ICAO: KTRI
IATA: TRI
Category: Large
Scheduled Services: Yes

Elevation: 1519 ft
TransAlt. 18000 ft.

Airport Communications:
APP:119.25
ATIS:118.25
CTAF:119.5
DEP:125.5
GND:121.7
NASHVILLE RDO:122.2
TWR:119.5
UNICOM:122.95

KTRI Zoom In..

Runways:

(A) RW 05 length 8000 ft width 150 ft
ILS 111.50 / hdg 48

(B) RW 09 length 4442 ft width 150 ft
---- / hdg 94

(C) RW 23 length 8000 ft width 150 ft
ILS 109.90 / hdg 228

(D) RW 27 length 4442 ft width 150 ft
---- / hdg 274

Location; KTRI
Day. 21 / Time. 23.53 Zulu
* Altimeter: 30.31
* Temperature: 16° c. 60.8°f.
* Wind from: KTR° Speed I kn.
Dewpoint: 09° c.
Visibility: 10 Statute Miles.
Clouds: Clear (automated report).

KTRI 212353Z 00000KT 10SM CLR 16/09 A3031 RMK AO2 SLP253 T01560094 10228 20156 56004

Going to: --> -->


Wind From KTR°
Speed I kn.

 
 
jpsmedia worldairports.se 2020   terms of use